Temp
8 8 8 8 8 7 7 7 7 7 7 7 8 8 8 8 8 8 8 8 7 7 7 7 7 7 6 6 6 6 6 6 6 6 7 7 7 7 7 7 7 7 7 7 7 7 7 7 7 6 6 6 6 6 6 6 6 5 5 5 5 5 5 5 5 5 5 5 5 5 5 5 5 5 5 5 5 5 5 5 5 6 6 6 6 6
8 7 7 7 7 7 6 6 6 6 6 6 7 7 7 7 7 7 7 7 7 6 6 6 6 6 6 6 6 6 6 6 6 6 6 6 6 6 6 6 6 6 6 6 6 6 6 6 6 5 5 5 5 5 5 5 5 5 5 4 4 4 4 4 4 4 4 4 5 5 5 5 5 5 5 5 5 5 5 5 5 5 5 5 5 6
7 7 7 7 7 6 6 6 6 6 6 6 6 6 6 6 6 6 6 6 6 6 6 6 6 6 6 6 5 5 5 5 5 5 5 5 5 5 6 6 6 6 6 5 5 5 5 5 5 5 5 5 5 5 5 4 4 4 4 4 4 4 4 4 4 4 4 4 4 4 4 4 4 4 4 4 4 5 5 5 5 5 5 5 5 5
6 6 6 6 6 6 5 5 5 5 5 5 6 6 6 6 6 6 6 6 6 6 6 6 6 6 6 6 6 6 6 5 5 5 5 5 5 5 5 5 5 5 5 5 5 4 4 4 4 4 4 4 4 4 4 4 4 4 3 3 3 3 4 4 4 4 4 4 4 4 4 4 4 4 4 4 4 4 4 4 4 4 5 5 5 5
6 6 6 6 5 5 5 5 5 5 5 5 5 5 5 5 5 6 6 6 6 6 5 5 5 5 5 5 5 6 6 5 5 5 5 5 4 4 4 4 4 4 4 4 4 4 4 4 4 3 3 3 3 3 3 3 3 3 3 3 3 3 3 3 3 3 3 3 3 3 3 3 3 3 3 3 4 4 4 4 4 4 4 4 5 5
5 5 5 5 5 5 5 5 5 5 5 5 5 5 5 5 5 5 5 5 5 5 5 5 5 5 5 5 5 5 5 5 5 5 5 4 4 4 4 4 4 4 3 3 3 3 3 3 3 3 3 3 3 3 3 3 3 3 3 3 3 3 3 3 3 3 3 3 3 3 3 3 3 3 3 3 3 3 3 4 4 4 4 4 4 4
5 5 5 5 5 5 5 5 5 5 5 5 5 5 5 5 5 5 5 5 5 5 5 5 5 5 5 5 5 5 5 5 5 5 4 4 4 4 4 4 3 3 3 3 3 3 3 3 3 3 3 3 3 3 3 3 3 3 3 3 3 3 3 2 2 2 2 3 3 3 3 3 3 3 3 3 3 3 3 3 3 3 4 4 4 4
5 5 5 5 5 5 5 5 5 5 5 5 5 5 5 5 4 4 4 5 5 5 5 5 5 4 4 4 4 4 4 4 4 4 4 4 4 4 4 4 4 4 3 3 3 3 3 3 3 3 3 3 3 3 3 3 3 3 3 3 3 2 2 2 2 2 2 2 2 2 2 2 2 2 2 2 2 2 3 3 3 3 3 3 3 4
6 6 5 5 5 5 5 5 5 5 5 5 5 5 5 4 4 4 5 4 4 4 5 5 5 5 4 4 4 4 4 4 4 4 4 4 4 4 4 4 4 4 4 4 3 3 3 3 3 3 3 3 3 3 3 3 3 3 3 3 3 3 2 2 2 2 2 2 2 2 2 2 2 2 2 2 2 2 2 2 2 3 3 3 3 3
6 6 5 5 5 5 5 5 5 5 5 5 5 4 4 4 4 4 4 4 4 4 4 4 5 5 5 4 4 4 4 4 4 4 4 4 4 3 3 3 3 3 3 3 3 3 3 3 3 3 3 3 3 3 3 3 3 3 3 3 2 2 2 2 2 2 2 2 2 2 2 2 2 2 2 2 2 2 2 2 2 2 2 2 2 3
5 5 5 5 5 5 5 5 5 4 4 4 4 4 4 4 3 4 4 4 4 4 4 4 4 4 4 4 4 4 4 4 4 4 4 3 3 3 3 3 3 3 3 3 3 3 3 3 3 3 3 3 3 3 3 3 3 2 2 2 2 2 2 2 2 2 1 1 1 1 1 1 1 1 2 2 2 2 2 2 2 2 2 2 2 2
5 5 5 5 5 4 4 4 4 4 4 4 4 3 3 3 3 3 3 3 3 3 3 3 4 4 4 4 4 4 4 4 3 3 3 3 3 3 3 3 2 2 2 2 2 2 3 3 3 2 2 3 3 3 2 2 2 2 2 2 2 2 2 2 1 1 1 1 1 1 1 1 1 1 2 2 2 2 2 2 2 2 2 2 2 2
4 4 4 4 4 4 4 4 4 4 4 3 3 3 3 3 3 3 3 3 3 3 3 3 3 3 3 3 3 3 3 3 3 3 3 3 3 3 2 2 2 2 2 2 2 2 2 2 2 2 2 2 2 2 2 2 2 2 2 2 2 2 1 1 1 1 1 1 1 1 1 1 1 1 1 1 1 1 1 1 1 1 1 1 1 1
4 4 3 3 3 3 3 3 3 3 3 3 3 3 3 3 3 3 3 3 3 3 3 3 3 3 3 3 3 3 3 3 3 3 3 2 2 2 2 2 2 2 2 2 2 2 3 2 2 2 2 2 2 2 2 2 2 2 2 2 1 1 1 1 1 1 1 1 1 1 1 1 1 1 1 1 1 1 1 1 1 1 1 1 1 1
4 3 3 4 3 3 3 3 3 3 3 3 3 3 3 3 2 2 2 3 3 3 3 3 3 3 2 2 2 2 2 2 2 2 2 2 2 2 2 2 2 2 2 2 2 3 3 2 2 2 2 2 2 2 2 2 2 2 1 1 1 1 1 1 1 1 1 1 1 1 1 1 1 1 1 1 1 1 1 1 1 1 1 1 1 1
4 4 4 4 4 3 3 3 3 3 3 3 3 3 2 2 2 2 2 2 2 2 2 2 2 2 2 2 2 2 2 2 2 2 2 2 2 2 2 2 2 2 2 2 2 2 2 2 2 2 2 2 2 2 1 1 1 1 1 1 1 1 1 1 1 1 1 1 1 1 1 1 1 1 1 1 1 1 1 1 1 1 1 1 1 1
3 3 3 3 3 3 3 3 3 3 3 2 2 2 2 2 2 2 2 2 2 2 1 1 1 0 1 1 1 1 1 1 1 1 1 1 2 2 2 1 1 1 2 2 2 2 2 1 1 1 1 1 1 1 1 1 1 1 1 1 1 1 1 1 1 1 1 1 1 1 1 1 1 1 1 1 1 1 1 1 1 1 1 1 1 1
3 3 3 3 3 3 3 3 2 2 2 2 2 2 2 2 2 2 2 1 1 1 1 1 0 -1 -1 2 2 1 1 0 -0 -0 -0 0 1 1 1 1 0 1 1 1 1 1 1 1 1 1 1 1 1 1 1 1 1 1 0 0 0 0 0 0 0 0 1 1 1 1 1 1 1 1 1 1 1 1 1 1 1 1 1 1 1 1
3 3 3 3 3 3 2 2 2 2 2 2 2 2 2 1 1 1 1 1 1 1 0 0 0 0 0 1 1 0 0 -0 -1 -1 -1 -1 0 1 1 0 0 0 0 1 1 1 0 0 0 0 0 0 0 0 0 0 0 0 0 0 0 0 0 0 0 0 0 0 0 0 1 1 1 1 1 1 0 0 1 1 1 1 1 1 1 1
3 3 3 3 3 3 2 2 2 2 2 2 2 2 2 1 1 1 1 1 1 0 0 -0 -0 -0 0 0 0 -0 -0 -1 -1 -1 -1 -1 -0 0 0 -0 -0 -0 -0 0 0 0 -0 -0 0 0 -0 -0 -0 0 0 0 0 -0 -0 -0 -0 -0 -0 -0 -0 -0 -0 0 0 0 0 0 0 0 0 0 0 0 0 1 1 1 1 1 1 1
3 3 3 3 3 3 2 2 2 2 2 2 2 2 1 1 1 1 1 0 0 0 -0 -0 -1 -1 -1 -1 -1 -1 -1 -1 -1 -2 -1 -1 -1 -0 0 -0 -1 -1 -1 -0 -0 -0 -1 -1 -0 -0 -0 -0 -0 -0 -0 -0 -0 -0 -0 -0 -1 -1 -1 -0 -0 -0 -0 -0 -0 -0 -0 -0 0 0 0 0 0 0 0 0 1 1 1 1 1 1
3 3 2 2 2 2 2 2 2 2 2 2 2 1 1 1 1 1 0 0 -0 -0 -0 -1 -1 -1 -1 -1 -1 -1 -1 -1 -2 -2 -2 -1 -1 -0 -0 -1 -1 -1 -1 -1 -1 -1 -1 -1 -1 -1 -0 -0 -0 -0 -0 -1 -1 -1 -1 -1 -1 -1 -1 -1 -1 -1 -1 -0 -0 -0 -0 -0 0 0 0 0 0 0 0 0 0 0 0 0 0 0
2 2 2 2 2 2 2 2 2 2 1 1 1 1 1 1 1 0 0 -0 -0 -0 -1 -1 -1 -1 -1 -1 -1 -1 -1 -2 -2 -2 -2 -2 -2 -1 -1 -1 -2 -2 -2 -2 -2 -2 -2 -1 -1 -1 -1 -0 -0 -1 -1 -1 -1 -1 -1 -1 -1 -1 -1 -1 -1 -1 -1 -1 -1 -0 -0 -0 -0 -0 -0 -0 -0 -0 -0 -0 -0 -0 -0 -0 -0 -0
2 2 2 2 2 2 1 1 1 1 1 1 1 1 0 0 0 -0 -0 -0 -1 -1 -1 -1 -1 -1 -1 -1 -1 -1 -2 -2 -2 -2 -2 -2 -2 -1 -2 -2 -2 -2 -2 -2 -2 -2 -2 -2 -1 -1 -1 -1 -1 -1 -1 -1 -2 -2 -2 -2 -1 -1 -1 -1 -1 -1 -1 -1 -1 -1 -1 -1 -1 -1 -1 -1 -1 -1 -1 -1 -1 -1 -1 -1 -0 -0
1 1 1 1 1 1 1 1 1 1 1 1 0 0 0 -0 -0 -0 -1 -1 -1 -1 -1 -1 -1 -2 -2 -2 -2 -2 -2 -2 -2 -2 -2 -2 -2 -2 -2 -2 -2 -3 -3 -3 -3 -3 -3 -2 -2 -1 -1 -1 -1 -1 -2 -2 -2 -2 -2 -2 -1 -1 -1 -1 -1 -1 -1 -1 -1 -1 -1 -1 -1 -1 -1 -1 -1 -1 -1 -1 -1 -1 -1 -1 -1 -1
1 1 1 1 1 1 1 1 1 0 0 0 0 -0 -0 -0 -1 -1 -1 -1 -1 -1 -1 -2 -2 -2 -2 -2 -2 -2 -2 -2 -3 -3 -3 -3 -3 -2 -2 -3 -3 -3 -3 -3 -3 -3 -3 -3 -2 -2 -2 -1 -1 -2 -2 -2 -2 -2 -1 -1 -1 -1 -1 -1 -1 -2 -2 -2 -2 -2 -2 -2 -2 -2 -2 -1 -1 -1 -1 -1 -1 -1 -1 -1 -1 -1
1 1 1 1 0 0 0 0 0 0 -0 -0 -0 -0 -0 -1 -1 -1 -1 -1 -1 -1 -2 -2 -3 -3 -3 -2 -2 -2 -3 -3 -3 -3 -3 -3 -3 -3 -3 -3 -3 -3 -4 -4 -4 -3 -3 -3 -3 -2 -2 -2 -2 -2 -2 -2 -2 -1 -1 -1 -1 -1 -2 -2 -2 -2 -2 -2 -2 -2 -2 -2 -2 -2 -2 -2 -2 -2 -2 -1 -1 -1 -1 -1 -1 -1
1 0 0 0 0 0 -0 -0 -0 -0 -0 -0 -0 -0 -1 -1 -1 -1 -1 -1 -1 -2 -2 -3 -3 -3 -3 -3 -3 -3 -3 -3 -2 -3 -3 -3 -3 -3 -3 -3 -3 -4 -4 -4 -4 -3 -3 -3 -2 -2 -2 -2 -2 -2 -2 -2 -2 -2 -2 -2 -2 -2 -2 -2 -2 -2 -2 -2 -2 -2 -2 -2 -2 -2 -2 -2 -2 -2 -2 -2 -2 -2 -2 -2 -2 -2
0 0 0 0 -0 -0 -0 -0 -0 -0 -0 -0 -0 -0 -1 -1 -1 -1 -1 -1 -1 -2 -2 -2 -2 -3 -3 -3 -3 -3 -2 -2 -2 -3 -3 -3 -3 -3 -3 -3 -4 -4 -4 -4 -4 -3 -3 -2 -2 -2 -2 -2 -2 -2 -2 -2 -2 -2 -2 -2 -2 -2 -3 -3 -3 -3 -2 -2 -2 -2 -2 -2 -3 -3 -3 -2 -2 -2 -2 -2 -2 -2 -2 -2 -2 -2
0 0 0 0 -0 -0 -0 -0 -0 -0 -0 -0 -0 -0 -1 -1 -1 -1 -1 -1 -1 -2 -2 -2 -2 -2 -2 -3 -3 -3 -3 -2 -2 -3 -3 -3 -3 -3 -3 -4 -4 -4 -4 -4 -4 -3 -3 -2 -2 -2 -2 -2 -3 -3 -3 -3 -3 -3 -3 -3 -3 -3 -3 -3 -3 -3 -3 -3 -3 -3 -3 -3 -3 -3 -3 -3 -3 -3 -3 -3 -3 -3 -3 -3 -3 -3
0 0 0 0 -0 -0 -0 -0 -1 -1 -1 -1 -1 -1 -1 -1 -1 -1 -1 -1 -1 -2 -2 -2 -2 -2 -3 -3 -3 -3 -4 -2 -2 -3 -4 -3 -3 -4 -4 -4 -4 -4 -4 -4 -4 -4 -3 -3 -2 -2 -3 -3 -3 -3 -4 -4 -4 -4 -4 -4 -4 -4 -4 -4 -4 -4 -4 -4 -4 -4 -3 -3 -3 -3 -3 -3 -3 -3 -3 -3 -3 -3 -3 -3 -3 -3
0 0 0 -0 -0 -0 -0 -0 -0 -1 -1 -1 -1 -1 -1 -1 -1 -1 -1 -1 -1 -2 -2 -2 -2 -2 -3 -3 -3 -3 -3 -3 -3 -3 -4 -4 -3 -4 -4 -3 -4 -4 -4 -4 -4 -4 -4 -3 -3 -3 -4 -4 -4 -4 -4 -4 -4 -4 -4 -4 -4 -4 -4 -4 -4 -4 -4 -4 -4 -4 -4 -4 -4 -4 -4 -4 -4 -4 -3 -3 -3 -3 -3 -3 -3 -3
0 0 -0 -0 -0 -0 -0 -0 -0 -0 -1 -1 -1 -1 -1 -1 -1 -1 -1 -1 -2 -2 -2 -2 -2 -2 -3 -3 -3 -3 -3 -3 -3 -3 -3 -3 -3 -3 -3 -3 -3 -4 -4 -4 -4 -4 -4 -4 -4 -4 -4 -4 -4 -4 -4 -4 -4 -4 -4 -4 -4 -4 -4 -4 -4 -4 -4 -4 -4 -4 -4 -4 -4 -4 -4 -4 -4 -4 -4 -4 -3 -3 -3 -3 -3 -3
0 -0 -0 -0 -0 -0 -0 -1 -1 -1 -1 -1 -1 -1 -1 -1 -1 -1 -1 -2 -2 -2 -2 -2 -2 -2 -2 -3 -3 -3 -3 -3 -3 -3 -3 -3 -3 -3 -3 -3 -4 -4 -4 -4 -4 -4 -4 -4 -4 -4 -4 -4 -4 -4 -4 -4 -4 -4 -4 -4 -4 -4 -4 -4 -4 -4 -5 -5 -5 -5 -4 -4 -4 -4 -4 -4 -4 -4 -4 -4 -4 -3 -3 -3 -3 -3
-0 -0 -0 -1 -1 -1 -1 -1 -1 -1 -1 -1 -1 -1 -1 -1 -1 -1 -1 -2 -2 -2 -2 -2 -2 -2 -2 -2 -3 -3 -3 -3 -3 -3 -3 -3 -3 -3 -4 -4 -4 -4 -4 -4 -4 -4 -4 -4 -4 -4 -4 -4 -4 -4 -4 -4 -4 -4 -4 -4 -4 -4 -4 -4 -5 -5 -5 -5 -5 -5 -5 -4 -4 -4 -4 -4 -4 -4 -4 -4 -4 -4 -3 -3 -3 -3
-0 -0 -1 -1 -1 -1 -1 -1 -1 -1 -1 -1 -1 -1 -1 -1 -1 -1 -1 -2 -2 -2 -2 -2 -2 -2 -2 -2 -2 -3 -3 -3 -3 -3 -3 -3 -3 -3 -4 -4 -4 -4 -4 -4 -5 -5 -5 -5 -5 -5 -4 -4 -4 -4 -4 -4 -4 -4 -4 -4 -4 -4 -5 -5 -5 -5 -5 -5 -5 -5 -5 -5 -5 -5 -5 -4 -4 -4 -4 -4 -4 -4 -4 -4 -4 -4
-0 -0 -0 -1 -1 -1 -1 -1 -1 -1 -1 -1 -1 -1 -1 -1 -1 -1 -1 -1 -1 -1 -1 -2 -2 -2 -2 -2 -2 -2 -3 -3 -3 -3 -3 -3 -3 -4 -4 -4 -4 -4 -5 -5 -5 -5 -5 -5 -5 -5 -4 -4 -4 -4 -4 -4 -4 -4 -4 -4 -5 -5 -5 -5 -4 -4 -4 -4 -4 -4 -5 -5 -5 -5 -5 -4 -4 -4 -4 -4 -4 -4 -4 -4 -4 -4
-0 -0 -1 -1 -1 -1 -1 -1 -1 -1 -1 -1 -1 -1 -1 -1 -1 -1 -1 -1 -1 -1 -2 -2 -2 -2 -2 -2 -2 -2 -2 -3 -3 -3 -3 -3 -3 -4 -4 -4 -4 -5 -5 -5 -5 -5 -5 -5 -5 -5 -5 -4 -4 -4 -4 -4 -4 -5 -5 -5 -5 -5 -4 -4 -4 -4 -4 -4 -4 -4 -5 -5 -5 -5 -5 -5 -5 -5 -5 -5 -5 -5 -5 -5 -4 -4
-0 -0 -1 -1 -1 -1 -1 -1 -1 -1 -1 -1 -1 -1 -1 -1 -1 -1 -1 -1 -1 -2 -2 -2 -2 -2 -2 -2 -2 -2 -2 -2 -3 -3 -3 -3 -3 -4 -4 -4 -5 -5 -5 -5 -5 -5 -5 -5 -5 -5 -5 -5 -5 -5 -5 -5 -5 -5 -5 -5 -5 -4 -4 -4 -4 -4 -4 -4 -4 -5 -5 -5 -5 -5 -5 -5 -5 -5 -5 -5 -5 -5 -5 -5 -5 -5
-0 -0 -0 -0 -0 -1 -1 -1 -1 -1 -1 -1 -1 -1 -1 -1 -1 -1 -1 -2 -2 -2 -2 -2 -2 -2 -2 -2 -2 -2 -2 -3 -3 -3 -3 -3 -4 -4 -4 -4 -5 -5 -5 -5 -5 -5 -5 -5 -5 -5 -5 -5 -5 -5 -5 -5 -5 -5 -5 -4 -4 -4 -4 -4 -4 -4 -4 -4 -4 -4 -5 -5 -5 -5 -5 -5 -5 -5 -5 -5 -5 -5 -5 -5 -5 -5
-0 -0 -0 -0 -0 -1 -1 -1 -1 -1 -1 -1 -1 -1 -1 -1 -2 -2 -2 -2 -2 -2 -2 -2 -2 -2 -2 -2 -2 -3 -3 -3 -3 -3 -3 -4 -4 -4 -4 -4 -5 -5 -5 -5 -5 -5 -5 -5 -5 -5 -5 -5 -5 -5 -5 -5 -5 -5 -5 -4 -4 -4 -5 -5 -5 -4 -4 -4 -4 -4 -5 -5 -5 -5 -5 -5 -5 -5 -5 -5 -5 -5 -5 -5 -5 -5
-0 -0 -0 -0 -0 -1 -1 -1 -1 -1 -1 -1 -1 -1 -2 -2 -2 -2 -2 -2 -2 -2 -2 -2 -2 -2 -3 -3 -3 -3 -3 -3 -3 -3 -3 -4 -4 -4 -4 -4 -4 -5 -5 -5 -5 -5 -5 -5 -5 -5 -5 -5 -5 -5 -5 -5 -5 -5 -5 -5 -5 -5 -5 -5 -5 -4 -4 -5 -5 -5 -5 -5 -5 -5 -5 -5 -5 -5 -5 -5 -5 -5 -5 -5 -5 -5
-0 -0 -0 -0 -0 -0 -1 -1 -1 -1 -1 -1 -1 -1 -1 -1 -2 -2 -2 -2 -2 -2 -2 -2 -2 -2 -3 -3 -3 -3 -3 -3 -3 -3 -3 -3 -4 -4 -4 -4 -4 -4 -5 -5 -5 -5 -5 -5 -5 -5 -5 -5 -5 -5 -5 -5 -5 -5 -5 -5 -5 -5 -5 -5 -5 -5 -5 -5 -5 -5 -5 -5 -5 -5 -5 -5 -5 -5 -5 -5 -5 -5 -5 -5 -5 -5
-0 -0 -0 -0 -0 -0 -1 -1 -1 -1 -1 -1 -1 -1 -1 -1 -1 -2 -2 -2 -2 -2 -2 -2 -2 -3 -3 -3 -3 -3 -3 -3 -3 -3 -3 -3 -4 -4 -4 -4 -4 -4 -5 -5 -5 -5 -5 -5 -5 -5 -5 -5 -5 -5 -5 -5 -5 -5 -5 -5 -5 -5 -5 -5 -5 -5 -5 -5 -5 -5 -5 -5 -5 -5 -5 -5 -5 -5 -5 -5 -5 -5 -5 -5 -5 -5
-0 -1 -1 -1 -1 -1 -1 -1 -1 -1 -1 -1 -1 -1 -1 -1 -1 -2 -2 -2 -2 -2 -2 -2 -2 -3 -3 -3 -3 -3 -3 -3 -3 -3 -3 -3 -4 -4 -4 -4 -4 -4 -4 -5 -5 -5 -5 -5 -5 -5 -5 -6 -6 -6 -5 -5 -5 -5 -5 -5 -5 -5 -5 -5 -5 -5 -5 -5 -5 -5 -5 -5 -5 -5 -5 -5 -5 -5 -5 -5 -5 -5 -5 -5 -5 -5
-1 -1 -1 -1 -1 -1 -1 -1 -1 -1 -1 -1 -1 -1 -1 -1 -2 -2 -2 -2 -2 -2 -2 -2 -3 -3 -3 -3 -3 -3 -3 -3 -3 -3 -3 -3 -4 -4 -4 -4 -4 -4 -4 -5 -5 -5 -5 -5 -5 -6 -6 -6 -6 -6 -6 -6 -6 -5 -5 -5 -5 -5 -5 -5 -5 -5 -5 -5 -5 -5 -5 -5 -5 -6 -6 -5 -5 -5 -5 -5 -5 -5 -5 -5 -5 -5
-1 -1 -1 -1 -1 -1 -1 -1 -1 -1 -1 -1 -1 -1 -1 -1 -1 -2 -2 -2 -2 -2 -2 -2 -3 -3 -3 -3 -3 -3 -3 -3 -3 -3 -3 -3 -4 -4 -4 -4 -4 -4 -4 -5 -5 -5 -5 -5 -5 -6 -6 -6 -6 -6 -6 -6 -6 -6 -5 -5 -5 -5 -5 -5 -5 -5 -5 -5 -5 -5 -5 -5 -6 -6 -6 -6 -6 -6 -5 -5 -5 -5 -6 -6 -6 -6
-1 -1 -1 -1 -1 -1 -1 -1 -1 -1 -1 -1 -1 -1 -1 -1 -1 -2 -2 -2 -2 -2 -2 -2 -3 -3 -3 -3 -3 -3 -3 -3 -3 -3 -3 -3 -4 -4 -4 -4 -4 -4 -5 -5 -5 -5 -5 -5 -6 -6 -6 -6 -6 -6 -6 -6 -6 -6 -6 -6 -6 -6 -6 -5 -5 -5 -5 -5 -5 -5 -5 -6 -6 -6 -6 -6 -6 -6 -6 -6 -6 -6 -5 -5 -5 -5
-1 -1 -1 -1 -1 -1 -1 -1 -1 -1 -1 -1 -1 -1 -1 -1 -2 -2 -2 -2 -2 -2 -2 -3 -3 -3 -3 -3 -3 -3 -3 -3 -3 -3 -3 -3 -4 -4 -4 -4 -4 -5 -5 -5 -5 -5 -5 -5 -5 -5 -6 -6 -6 -6 -6 -6 -6 -6 -6 -6 -6 -6 -6 -6 -5 -5 -5 -5 -5 -5 -6 -6 -6 -6 -6 -6 -6 -6 -6 -6 -6 -5 -5 -5 -5 -5
-1 -1 -1 -1 -1 -1 -1 -1 -1 -1 -1 -1 -2 -2 -2 -2 -2 -2 -2 -2 -2 -3 -3 -3 -3 -3 -3 -3 -3 -3 -3 -3 -3 -3 -3 -4 -4 -4 -4 -4 -5 -5 -5 -5 -5 -5 -5 -5 -5 -5 -5 -5 -5 -6 -6 -6 -6 -6 -6 -6 -6 -6 -6 -5 -5 -5 -5 -5 -5 -6 -6 -6 -6 -6 -6 -6 -6 -6 -6 -6 -5 -5 -5 -5 -5 -5
-1 -1 -1 -1 -1 -1 -1 -1 -2 -2 -2 -2 -2 -2 -2 -2 -2 -2 -2 -3 -3 -3 -3 -3 -3 -3 -3 -3 -3 -3 -3 -3 -3 -4 -4 -4 -4 -4 -4 -5 -5 -5 -5 -5 -5 -5 -5 -5 -5 -5 -5 -5 -5 -5 -5 -5 -5 -5 -5 -5 -5 -5 -5 -5 -5 -5 -5 -5 -6 -6 -6 -6 -6 -6 -6 -6 -6 -6 -6 -5 -5 -5 -5 -5 -5 -5
Height
752 753 753 753 754 754 755 756 757 756 754 753 751 750 750 750 750 750 750 750 751 751 752 752 752 753 753 753 753 753 752 752 752 752 752 752 752 752 752 752 753 753 753 753 753 753 754 754 754 755 755 755 755 756 756 756 757 757 757 757 757 758 758 758 758 758 758 758 759 759 759 758 758 758 758 759 759 759 759 759 759 759 759 759 759 759
752 752 753 753 753 754 755 756 757 756 755 753 751 750 750 750 750 750 750 750 750 751 751 752 752 752 753 753 753 752 752 752 752 752 752 752 752 752 752 752 752 752 753 753 753 753 753 753 753 754 754 754 754 755 755 755 755 755 755 755 756 756 756 756 756 756 756 757 757 757 756 756 756 756 756 756 756 756 756 757 757 757 757 756 756 756
752 752 752 753 753 754 755 756 756 756 755 753 751 750 750 750 750 750 750 750 750 751 751 751 752 752 752 752 752 752 751 751 752 752 752 752 752 752 752 752 752 752 752 752 752 753 753 753 753 753 753 753 753 753 754 754 754 754 754 754 754 755 755 755 755 755 755 755 755 755 754 754 754 754 754 754 754 754 755 755 755 755 755 755 755 755
751 752 752 753 753 753 754 755 755 755 755 753 751 750 750 749 749 749 749 749 750 750 750 751 751 751 751 751 751 751 751 751 751 751 751 751 751 751 751 751 751 751 751 751 752 752 752 752 752 752 752 752 752 752 752 753 753 753 753 753 753 753 753 753 753 753 753 753 753 753 752 752 752 752 752 752 752 752 752 752 753 753 753 753 753 753
751 752 753 753 753 753 754 754 755 755 754 752 751 750 750 749 749 749 749 749 749 750 750 750 750 750 750 750 750 750 750 750 750 750 750 751 751 751 751 751 750 750 751 751 751 751 751 751 751 751 751 751 752 752 752 752 752 752 752 752 752 752 752 752 752 752 751 751 751 751 751 750 750 750 750 750 750 750 750 750 750 751 751 751 751 750
752 752 753 753 753 753 753 754 754 753 752 751 750 750 749 749 749 749 749 749 749 749 749 749 750 750 750 749 749 749 749 749 750 750 750 750 750 750 750 750 750 750 750 750 750 750 750 751 751 751 751 751 751 751 751 751 751 751 751 751 751 751 750 750 750 750 750 750 750 749 749 749 749 749 748 748 748 748 749 749 749 749 749 749 749 749
751 752 752 753 753 753 753 753 752 752 751 750 749 749 749 749 749 749 749 749 749 749 749 749 749 749 749 749 749 749 749 749 749 750 750 750 750 750 750 750 750 750 750 750 750 750 750 750 750 750 750 750 750 750 750 750 750 750 750 750 749 749 749 749 749 748 748 748 748 748 747 747 747 747 747 746 746 746 746 747 747 746 746 746 746 746
751 751 752 752 752 752 752 751 751 750 750 749 749 749 749 749 749 749 749 749 748 748 749 749 749 749 749 749 749 749 749 749 749 750 750 750 750 750 750 750 749 749 749 749 749 749 749 749 749 749 749 749 749 749 749 748 748 748 748 748 747 747 747 747 747 747 746 746 746 746 746 745 745 745 745 745 745 745 745 745 745 744 744 744 744 744
750 750 751 751 751 751 751 750 750 750 749 749 749 749 749 749 749 749 749 749 748 748 748 748 749 749 749 749 749 749 749 749 749 750 750 750 750 749 749 749 749 749 749 749 749 748 748 748 748 748 748 748 747 747 747 747 747 746 746 746 746 745 745 745 745 745 745 745 744 744 744 744 744 743 743 743 743 743 742 742 742 742 742 742 742 741
750 750 750 750 750 750 750 749 749 749 749 749 749 749 749 749 749 749 748 748 748 748 748 748 748 748 749 749 749 749 749 749 749 749 749 749 749 749 748 748 748 748 748 748 748 748 747 747 747 747 747 746 746 746 746 745 745 745 745 744 744 744 744 743 743 743 743 743 743 743 742 742 742 741 741 741 741 740 740 740 740 740 740 740 739 739
749 750 750 750 749 749 749 749 749 749 749 749 749 749 749 749 749 748 748 748 748 748 748 748 748 748 748 748 748 748 748 749 749 749 749 748 748 748 748 747 747 747 747 747 747 747 746 746 746 746 746 745 745 745 744 744 744 743 743 742 742 742 742 742 741 741 741 741 741 741 741 740 740 740 740 739 739 739 739 738 738 738 737 737 737 737
749 749 749 749 749 749 748 749 749 749 749 749 749 749 749 749 749 748 748 748 748 748 748 748 748 748 748 748 747 748 748 748 748 748 748 747 747 747 747 746 746 746 746 746 746 746 746 745 745 745 745 744 744 743 743 742 742 741 741 741 740 740 740 740 740 740 740 740 739 739 739 739 738 738 738 738 737 737 737 736 736 736 735 735 735 735
748 748 748 749 749 749 749 749 749 749 749 749 749 749 749 749 749 748 748 748 748 748 748 748 748 748 748 747 747 747 747 747 746 746 746 746 746 746 746 746 745 745 745 745 745 745 745 745 744 744 744 743 742 742 741 741 740 740 740 739 739 739 739 739 739 738 738 738 738 738 737 737 737 736 736 736 735 735 735 735 734 734 734 733 733 733
748 748 748 749 749 749 749 749 749 749 749 749 749 749 749 748 748 748 748 748 748 748 748 748 748 748 747 747 746 746 746 746 746 746 746 746 746 745 745 745 745 745 745 744 744 744 744 744 743 742 742 741 740 740 740 739 739 738 738 738 738 738 738 737 737 737 737 736 736 736 735 735 735 735 734 734 734 733 733 733 732 732 732 731 731 731
748 748 748 748 748 749 749 749 749 749 748 748 748 748 748 748 748 748 748 748 748 748 748 747 747 747 747 746 746 746 746 745 745 745 745 745 745 745 745 744 744 744 744 743 743 743 743 742 741 740 740 740 739 738 738 738 737 737 737 737 737 736 736 736 735 735 735 735 735 734 734 734 733 733 733 732 732 732 731 731 730 730 730 730 729 729
747 748 748 748 748 748 748 748 748 748 748 748 748 748 748 748 748 748 748 748 748 748 747 747 747 747 746 746 746 746 746 745 745 745 745 744 744 745 744 743 742 742 742 742 741 741 741 740 740 739 738 738 738 737 737 736 736 736 736 735 735 735 735 734 734 734 734 733 733 733 732 732 732 731 731 730 730 730 730 729 729 728 728 728 727 727
747 747 747 747 747 747 747 747 747 747 747 747 748 748 748 748 748 748 748 748 748 748 748 748 748 747 746 746 745 745 745 745 745 745 744 743 743 743 743 742 741 741 740 740 740 740 739 739 738 738 737 737 736 736 735 735 735 735 734 734 734 733 733 733 732 732 732 732 731 731 731 730 730 730 729 729 728 728 728 727 727 726 726 726 725 725
746 746 746 746 746 747 747 747 747 747 747 747 747 748 748 748 748 748 748 748 748 748 748 748 748 748 747 746 745 745 745 745 745 744 743 742 741 741 741 741 740 740 739 739 738 738 738 737 737 736 736 735 735 735 735 734 734 733 733 732 732 732 731 731 731 730 730 730 730 729 729 729 728 728 727 727 726 726 725 725 725 724 724 724 723 723
746 746 746 746 746 746 746 746 747 747 747 747 748 748 748 748 748 748 748 748 748 748 748 748 748 748 747 746 746 745 745 745 744 743 742 741 740 740 740 740 739 738 738 738 737 737 737 736 736 735 735 735 734 734 733 733 732 732 731 731 730 730 730 729 729 729 728 728 728 727 727 727 726 726 725 725 725 724 724 723 723 722 722 722 721 721
745 745 746 746 746 746 746 746 747 747 747 747 747 748 748 748 748 748 748 748 748 748 748 748 748 747 747 746 745 745 745 744 743 743 741 740 739 739 739 739 738 737 737 736 736 736 736 735 735 734 734 733 733 732 731 731 730 730 730 729 729 728 728 728 727 727 726 726 726 725 725 725 724 724 724 723 723 722 722 721 721 721 720 720 719 719
745 745 745 746 746 746 746 746 746 747 747 747 747 747 748 748 748 748 748 748 748 747 747 747 747 747 746 745 745 745 745 744 743 742 741 740 739 738 738 738 737 737 736 735 735 735 735 734 733 733 732 732 731 730 730 730 729 729 728 728 727 727 726 726 725 725 725 725 724 724 723 723 723 722 722 721 721 720 720 720 719 719 718 718 717 717
745 745 745 745 746 746 746 746 746 747 747 747 747 747 747 747 747 747 747 747 747 747 747 747 746 746 746 745 745 744 744 744 743 742 741 740 738 738 738 738 737 736 735 735 734 734 734 733 732 731 731 730 730 729 729 728 727 727 727 726 726 725 725 725 724 724 723 723 723 722 722 721 721 720 720 720 719 719 718 718 717 717 716 715 715 715
745 745 745 745 745 746 746 746 746 746 746 747 747 747 747 747 747 747 747 747 747 746 746 746 746 745 745 745 744 744 744 743 743 742 742 740 738 738 738 738 737 736 735 734 733 733 732 731 730 730 729 729 728 727 727 726 726 725 725 725 724 724 723 723 723 722 722 721 721 721 720 720 719 719 718 718 717 717 716 715 715 715 714 713 713 712
745 745 745 745 745 746 746 746 746 746 746 746 746 746 746 746 746 746 746 746 746 746 746 745 745 745 744 744 744 744 744 743 743 742 742 740 739 738 738 737 736 735 734 733 733 732 730 729 729 728 728 727 726 726 725 725 725 724 724 723 723 722 722 721 721 720 720 720 719 719 718 718 717 717 716 716 715 715 714 714 713 712 712 711 711 710
745 745 745 745 745 745 746 746 746 746 746 746 746 746 746 746 746 746 746 746 746 745 745 745 744 744 744 744 743 743 743 743 743 742 742 740 739 738 738 737 736 735 733 732 731 730 729 727 726 726 725 725 725 724 724 724 723 723 722 722 721 721 720 720 720 719 719 718 717 717 716 716 715 715 714 714 713 713 712 712 711 710 710 709 709 708
745 745 745 745 745 745 745 746 746 746 746 746 746 746 745 745 745 745 745 745 745 745 745 744 744 744 743 743 743 743 743 742 742 742 741 740 739 737 737 737 736 735 733 730 730 729 728 726 725 724 724 724 723 723 723 722 722 721 721 721 720 720 719 719 718 717 717 716 715 715 714 714 713 713 712 712 711 711 710 710 709 709 708 707 706 705
745 745 745 745 745 745 745 746 746 746 746 745 745 745 745 745 745 745 745 745 745 745 744 744 744 743 743 743 742 742 742 742 741 741 740 740 739 737 736 736 735 734 732 730 728 727 726 725 723 722 722 722 722 722 722 721 721 720 720 720 719 718 718 717 716 715 715 714 713 713 712 712 711 711 710 710 710 709 709 708 708 707 706 705 704 703
745 745 745 745 745 746 746 746 746 746 746 746 745 745 745 745 745 745 745 745 745 744 744 744 744 743 742 742 742 741 741 741 741 740 740 739 738 737 736 736 735 734 732 729 727 725 725 724 723 722 721 721 721 721 721 720 720 720 719 718 718 717 716 715 714 714 713 712 712 711 710 710 710 709 709 708 708 707 707 706 706 705 704 703 702 701
745 745 745 745 745 746 746 746 746 746 746 746 746 746 745 745 745 745 745 745 744 744 744 743 743 743 742 742 741 741 740 740 740 740 739 739 738 737 736 735 735 734 732 730 726 724 723 722 722 721 721 720 720 720 720 719 719 718 717 716 716 715 714 713 713 712 711 711 710 710 709 709 708 708 707 706 706 705 705 705 704 703 702 701 700 699
745 745 745 745 745 745 745 745 745 745 745 745 745 745 745 745 745 745 744 744 744 744 743 743 743 743 742 742 741 740 740 740 739 739 739 738 737 736 735 735 735 734 733 731 728 724 721 720 721 721 720 720 719 719 718 718 717 716 715 715 714 713 712 712 711 710 710 709 709 708 707 707 706 706 705 705 704 704 703 703 702 701 700 699 698 697
745 745 745 745 745 745 745 745 745 745 745 745 745 745 745 745 744 744 744 744 744 743 743 743 743 743 743 742 742 741 740 739 739 739 739 738 737 736 735 735 735 734 734 734 732 728 723 719 719 719 720 719 718 717 717 716 715 715 714 713 712 712 711 710 710 709 708 708 707 706 706 705 705 704 703 703 702 702 701 701 700 700 699 698 696 695
744 744 745 745 745 745 745 745 745 745 745 745 744 744 744 744 744 744 744 743 743 743 743 743 742 742 742 742 742 741 740 739 739 739 739 738 737 736 735 735 734 734 734 734 734 733 729 722 718 717 718 718 717 716 715 715 715 714 713 712 711 710 710 710 709 708 707 706 705 705 704 703 703 702 701 701 700 700 700 699 699 698 697 696 695 694
744 744 744 744 744 744 744 744 744 744 744 744 744 744 744 744 743 743 743 743 743 743 742 742 742 742 741 741 741 740 740 739 739 739 739 738 737 736 735 735 734 733 733 733 733 733 731 726 722 718 716 716 716 715 714 714 713 713 712 711 710 709 709 708 707 706 705 704 703 703 702 701 701 700 700 699 699 698 698 697 697 697 696 695 694 693
743 743 743 744 744 744 744 744 744 743 743 743 743 743 743 743 743 742 742 742 742 742 742 741 741 741 740 740 740 739 739 738 738 738 738 738 736 735 735 734 734 733 732 731 731 730 729 727 724 720 717 714 714 714 714 713 712 712 711 710 709 708 707 706 706 705 704 703 702 701 700 699 699 698 698 697 697 696 696 695 695 695 695 695 693 692
743 743 743 743 743 743 743 743 743 743 743 742 742 742 742 742 742 742 741 741 741 741 741 740 740 740 740 740 739 738 737 737 738 738 737 737 736 735 734 733 733 733 732 731 730 729 727 725 724 722 719 715 712 712 712 712 711 710 710 709 708 707 706 705 705 703 702 701 700 699 698 698 697 696 696 695 695 695 694 694 694 693 693 693 692 691
742 742 742 742 742 742 742 742 742 742 742 741 741 741 741 741 741 741 740 740 740 740 740 740 739 739 739 739 738 737 736 736 737 737 736 736 735 735 734 733 732 732 732 730 730 728 727 725 723 721 720 716 713 710 710 710 710 709 708 708 707 706 705 704 703 702 701 700 699 698 697 696 696 695 694 694 694 693 693 692 691 691 690 690 690 689
741 741 741 741 741 741 741 741 741 740 740 740 740 740 740 740 740 740 740 740 739 739 739 738 738 738 738 737 737 736 736 735 735 735 735 735 734 734 733 732 732 732 731 730 729 728 726 724 722 720 719 717 714 711 709 708 708 708 707 706 705 704 703 703 702 701 700 699 698 697 696 695 695 694 693 692 692 691 690 690 689 688 688 687 686 686
740 740 740 740 740 740 740 740 740 740 739 739 739 739 739 739 739 739 739 738 738 738 738 737 737 737 737 736 736 735 735 735 735 734 734 734 733 733 732 731 731 730 731 730 729 728 726 725 722 720 717 715 714 712 710 709 707 706 705 704 704 703 702 701 700 700 699 698 697 695 695 694 693 692 691 690 690 689 688 686 686 686 685 684 684 683
739 739 739 739 739 739 739 739 739 739 739 739 738 738 738 738 738 738 737 737 737 737 737 736 736 736 735 735 735 735 734 734 734 733 733 733 732 732 731 731 730 729 729 729 728 727 726 725 723 720 718 715 713 711 710 709 708 706 704 702 701 700 700 700 700 699 698 697 695 694 693 693 692 691 690 689 688 687 686 685 684 683 683 682 680 679
738 738 738 738 738 738 738 738 738 738 738 738 737 737 737 737 737 737 736 736 736 736 736 735 735 735 734 734 734 733 733 733 732 732 732 731 731 731 730 730 729 728 728 727 727 726 725 724 722 720 719 717 714 711 709 708 707 706 705 702 700 698 698 698 698 697 696 695 695 693 692 691 690 690 689 687 687 686 685 683 682 681 681 680 679 677
737 737 737 737 737 737 737 737 737 737 737 737 737 736 736 736 736 736 735 735 735 735 735 734 734 733 733 733 732 732 732 732 731 731 731 730 730 730 729 729 728 727 726 726 725 725 724 723 721 720 718 716 714 711 709 708 707 706 705 703 700 698 696 696 696 696 695 694 693 692 691 690 689 688 687 686 685 684 683 682 681 680 679 679 678 677
736 736 736 736 736 736 736 736 736 736 736 736 736 736 735 735 735 735 734 734 734 734 733 733 733 732 731 731 730 731 730 730 730 730 729 729 729 728 728 727 726 726 725 724 724 723 722 721 720 719 717 716 714 711 708 706 705 705 705 703 700 698 695 694 694 694 694 693 692 691 690 689 688 686 685 684 683 682 681 681 680 679 678 676 675 675
735 735 735 735 735 735 735 735 735 735 735 735 735 735 735 735 734 734 733 733 733 732 732 732 731 731 730 729 729 729 729 729 729 728 728 727 727 727 726 726 725 725 724 723 722 721 720 720 719 718 716 715 714 711 708 705 704 704 703 703 701 699 695 692 691 692 692 691 690 690 689 688 686 685 684 683 681 680 680 679 678 677 676 675 674 672
734 734 734 734 734 734 734 734 734 734 734 734 734 733 733 733 733 733 733 732 732 731 731 731 730 730 729 728 727 727 727 727 727 727 726 726 726 725 725 724 724 723 723 722 721 720 719 718 717 716 715 715 713 711 708 705 704 702 701 701 701 700 697 694 691 691 690 690 689 688 688 687 685 684 682 681 680 679 678 676 675 674 674 673 672 670
733 733 733 733 733 733 733 733 733 733 733 733 732 732 732 732 732 732 732 731 731 730 730 730 730 729 727 726 726 726 725 725 725 725 725 725 725 724 724 723 722 722 721 721 720 719 718 716 715 714 714 713 712 710 707 705 703 701 700 700 699 698 696 694 692 691 690 688 687 686 686 686 685 683 681 679 678 676 676 675 673 672 670 670 669 668
732 732 732 732 732 732 732 732 732 732 732 731 731 731 731 731 731 731 730 730 730 729 729 729 729 728 726 725 725 725 724 724 724 724 724 723 723 723 722 722 721 721 720 719 719 718 717 716 715 713 712 711 709 707 706 705 703 701 699 698 697 696 694 693 691 691 690 688 686 685 685 685 684 683 680 678 676 674 673 672 671 670 668 667 666 665
731 731 731 731 731 731 731 731 731 731 730 730 730 730 730 730 730 730 729 729 729 728 728 727 727 727 725 725 724 724 723 722 722 722 722 722 721 721 721 720 720 719 719 718 717 716 715 714 714 713 711 710 707 705 703 703 702 700 698 697 696 695 693 691 690 689 689 688 686 685 684 684 683 681 679 677 675 672 670 669 669 668 666 665 663 662
730 730 730 730 730 730 730 730 730 730 730 729 729 729 729 729 729 728 728 728 727 727 727 726 726 725 725 724 723 723 722 722 721 720 720 720 720 720 719 719 718 718 717 716 715 714 713 712 711 711 710 709 706 703 700 700 700 699 698 696 695 694 692 690 688 688 687 686 685 685 684 683 682 680 678 676 673 670 668 666 665 665 664 663 661 659
730 730 729 729 729 729 729 729 729 729 728 728 728 728 727 727 727 727 727 726 726 726 726 725 725 724 723 723 722 722 721 721 720 720 719 719 719 718 718 717 717 716 715 714 713 712 711 710 709 708 708 707 705 702 700 698 698 697 696 695 694 693 691 689 687 686 686 685 684 683 683 682 681 680 679 676 672 668 666 664 663 661 661 660 659 657
728 728 728 728 728 728 728 728 728 727 727 727 727 726 726 726 726 726 726 726 725 725 725 725 724 723 722 721 721 721 720 720 719 719 718 718 718 717 717 716 715 715 714 712 711 710 709 707 706 705 705 705 703 701 699 697 696 695 695 694 693 692 690 688 686 685 685 684 683 682 681 680 679 679 678 675 672 668 664 662 660 658 658 657 656 655
727 727 727 727 727 727 727 726 726 726 726 726 726 725 725 725 725 725 725 725 725 725 724 724 723 722 721 720 720 720 719 719 718 718 717 717 717 716 716 715 715 714 713 711 710 708 707 705 703 702 701 701 701 700 699 697 695 694 693 691 691 690 689 687 685 684 684 683 681 680 679 678 677 676 675 674 671 667 663 660 657 655 655 654 654 652
Wind_Speed
12 12 13 13 11 10 11 11 10 9 9 8 7 7 7 7 8 8 8 8 7 7 7 7 7 8 8 9 9 9 9 10 10 11 12 12 12 13 13 13 13 13 13 13 14 14 14 14 15 15 15 15 15 15 15 15 15 15 14 14 14 14 14 14 14 14 15 16 16 16 17 17 18 18 19 19 20 20 20 21 21 21 21 22 22 22
11 11 11 11 10 9 10 10 10 9 8 7 6 6 5 5 5 6 6 6 6 6 6 6 6 6 7 7 8 8 9 9 10 11 11 12 12 13 13 13 14 14 14 14 14 14 14 14 14 14 14 14 14 14 13 13 13 14 14 14 14 14 14 15 15 15 16 17 17 18 18 19 19 20 20 21 21 21 21 22 22 22 22 22 22 22
9 9 10 9 9 8 9 9 9 9 8 7 6 6 5 4 4 4 4 5 5 5 5 6 6 6 6 6 7 7 8 8 9 10 10 11 11 12 12 12 13 13 13 13 13 13 13 12 12 12 12 12 12 12 12 13 13 13 13 14 14 15 15 16 17 17 18 19 19 20 20 21 21 21 22 22 22 22 22 22 23 23 23 23 23 23
7 8 8 8 7 7 7 8 8 8 8 7 6 6 5 4 4 4 4 4 5 5 5 5 5 5 5 6 6 6 7 7 8 9 9 10 10 10 11 11 11 11 10 10 10 10 10 10 10 10 11 11 11 11 12 12 13 13 14 14 15 16 16 17 18 18 19 20 20 21 21 21 22 22 22 22 22 22 23 23 23 23 23 23 23 23
5 6 6 6 5 5 5 5 6 7 7 7 6 6 6 5 4 4 4 4 4 4 5 5 5 5 5 5 5 5 5 6 6 7 7 8 9 9 9 8 8 8 7 7 8 8 8 8 9 9 10 10 11 11 12 12 13 13 14 15 15 16 17 17 18 18 19 19 20 20 20 20 21 21 21 21 21 22 22 22 22 22 22 22 23 23
3 4 3 4 4 3 3 4 5 5 6 6 6 6 6 5 5 4 4 4 4 4 4 4 4 4 3 3 3 4 4 4 4 5 5 6 6 6 6 6 5 5 5 6 6 7 7 8 8 9 10 10 11 11 12 12 13 13 14 15 15 16 16 17 17 18 18 19 19 19 19 20 20 20 20 20 20 21 21 21 21 22 22 22 22 23
2 2 2 2 2 2 2 3 3 4 5 5 5 5 5 5 5 5 5 5 5 5 4 4 4 4 3 3 3 2 2 2 2 3 3 3 4 4 4 4 4 5 5 6 6 7 8 8 9 10 10 11 11 12 12 13 13 14 14 15 16 16 17 17 17 18 18 18 19 19 19 19 20 20 20 20 20 20 21 21 21 21 22 22 22 22
1 1 1 1 0 0 1 2 3 4 4 4 4 4 4 4 4 5 5 5 5 5 5 5 4 4 4 4 4 3 3 3 3 2 3 3 3 3 4 4 5 5 6 7 7 8 9 9 10 11 11 11 12 12 13 14 14 15 16 17 17 18 18 18 18 18 18 18 18 19 19 19 19 19 19 20 20 20 20 21 21 21 21 22 22 22
1 1 1 1 1 1 2 2 3 4 4 4 4 4 5 5 5 5 5 5 5 6 5 5 5 4 4 4 4 4 4 4 4 4 5 5 5 5 6 6 6 7 7 8 9 9 10 10 11 11 12 12 13 13 14 15 16 16 17 18 19 19 19 19 18 18 18 18 18 19 19 18 18 19 19 19 19 20 20 20 20 21 21 21 21 22
1 1 1 1 1 1 2 2 3 4 4 4 3 4 5 6 6 6 6 6 6 6 6 6 5 5 5 5 5 5 6 6 6 6 7 7 7 8 8 9 9 9 10 10 11 11 11 12 12 12 13 13 14 14 15 16 17 17 18 19 19 19 19 19 18 18 18 18 18 18 18 18 18 18 18 18 18 19 19 19 19 20 20 20 21 21
3 2 1 1 1 1 2 2 3 3 4 3 3 3 4 5 6 6 7 6 6 6 6 6 7 7 8 8 7 8 8 8 8 8 8 8 8 9 9 10 11 11 12 12 13 13 13 13 13 14 14 15 16 16 17 17 18 18 19 19 19 19 18 18 17 17 17 17 17 17 17 17 17 17 17 17 18 18 18 18 19 19 19 19 20 20
4 3 3 2 1 0 1 1 2 2 3 3 3 2 3 4 4 5 5 6 6 7 7 7 7 8 9 10 10 10 10 10 9 9 9 8 8 9 9 10 11 12 12 13 14 14 14 15 15 16 16 17 18 18 18 18 18 18 18 18 17 17 17 16 16 16 16 16 16 16 16 16 16 16 17 17 17 17 18 18 18 18 19 19 19 20
5 4 4 3 2 2 2 1 1 2 2 2 2 1 1 2 3 4 4 4 5 7 7 8 8 9 10 11 11 11 10 10 10 9 9 9 9 9 10 11 12 12 13 14 14 15 15 16 17 17 18 18 18 18 18 17 17 17 16 16 15 14 14 14 14 14 15 15 16 16 16 16 16 16 17 17 17 17 18 18 18 19 19 19 19 20
6 5 5 5 4 4 4 3 3 2 2 1 1 1 0 1 2 3 3 3 5 6 8 8 8 9 9 10 9 9 9 9 9 9 9 9 9 10 11 12 12 13 14 15 15 16 16 17 18 18 17 17 17 16 16 15 15 14 14 13 13 13 13 13 14 14 15 15 16 16 16 16 16 17 17 17 17 18 18 18 19 19 19 20 20 20
6 6 5 4 4 4 4 4 3 3 2 2 2 1 1 1 2 2 3 3 5 7 9 9 9 8 7 7 7 7 7 8 9 9 10 10 10 11 12 13 14 15 16 17 17 17 17 17 17 16 15 14 14 14 13 13 13 12 12 12 12 13 14 14 15 15 15 16 16 16 17 17 17 17 18 18 18 18 19 19 20 20 20 21 21 21
6 6 5 4 4 4 4 4 4 4 3 3 2 2 2 1 2 3 4 4 6 7 8 8 7 5 4 5 5 5 6 7 8 10 12 13 13 13 14 16 17 17 17 18 18 17 16 15 14 14 13 13 12 12 12 12 12 12 13 13 14 14 15 15 16 16 16 17 17 17 17 17 18 18 18 18 19 19 19 20 20 21 21 21 22 22
6 5 4 4 4 5 5 4 4 4 4 4 3 3 2 2 3 4 4 5 6 6 5 5 3 2 2 3 4 5 6 8 10 13 16 18 17 16 16 17 17 18 18 17 17 16 15 14 13 13 12 12 12 12 12 13 13 13 14 14 15 15 16 16 16 17 17 17 17 17 18 18 18 18 19 19 19 19 20 20 20 21 21 22 22 22
6 6 5 5 5 5 5 6 6 5 5 4 4 3 3 3 3 4 4 4 4 3 3 3 2 2 3 3 4 7 10 12 14 17 19 20 20 18 17 17 16 16 17 16 16 15 14 14 13 13 13 13 14 14 14 14 14 15 15 15 16 16 16 17 17 17 17 17 18 18 18 18 18 19 19 19 20 20 20 21 21 21 22 22 22 22
7 6 6 5 5 5 5 6 6 5 5 5 4 3 2 2 3 3 3 4 4 3 3 3 3 4 5 5 6 10 14 15 17 17 18 18 19 18 17 16 15 15 16 16 16 15 15 15 15 15 15 15 15 15 15 16 16 16 16 17 17 17 18 18 18 18 18 18 18 18 18 18 19 19 19 19 20 20 20 20 21 21 21 22 22 22
7 6 6 5 5 5 5 5 5 4 4 3 3 2 2 2 3 3 3 4 4 5 5 5 5 5 6 8 10 13 16 17 16 15 14 15 17 17 16 14 14 15 16 17 17 16 16 16 16 17 17 17 17 17 18 18 18 18 18 18 18 18 18 18 18 18 18 18 18 18 18 19 19 19 19 19 19 19 20 20 20 20 21 21 22 22
6 5 5 4 4 4 5 5 4 4 3 3 3 3 3 3 3 4 4 4 5 5 6 6 6 7 8 11 14 16 16 15 14 12 11 13 14 15 14 13 13 15 17 18 18 17 17 18 18 18 19 19 19 19 19 19 19 18 18 18 18 18 18 18 17 17 17 18 18 18 18 18 18 18 18 18 18 18 19 19 19 20 21 21 22 23
5 4 4 3 3 3 3 3 3 3 3 3 3 3 3 3 4 4 5 5 6 6 7 8 9 10 12 14 15 15 14 12 11 11 10 9 11 13 12 12 13 15 17 18 19 18 18 19 20 20 21 21 21 20 19 19 18 17 17 17 17 17 17 17 16 16 16 17 17 17 17 17 17 17 17 17 18 18 19 20 20 21 22 23 23 24
4 4 3 3 3 3 3 3 3 3 3 3 3 4 4 4 4 4 5 6 7 8 9 10 12 13 14 14 13 12 10 8 9 9 8 6 8 11 12 13 14 16 17 18 19 20 21 22 22 23 23 22 21 19 17 16 15 15 15 15 15 15 15 15 15 15 15 15 15 15 16 16 16 17 18 18 19 20 21 21 22 23 23 24 24 25
3 3 3 3 2 3 3 3 3 3 3 3 4 4 5 6 6 6 7 7 8 9 10 11 12 12 12 11 10 8 7 7 8 8 6 6 8 11 12 14 15 16 17 18 19 21 23 24 25 24 23 21 18 16 14 13 13 13 13 13 13 13 13 14 14 14 14 15 15 16 16 17 18 19 20 20 21 22 22 23 23 23 24 24 24 24
2 3 3 3 3 3 3 3 3 4 4 4 4 5 6 6 6 7 7 7 7 8 9 10 10 10 9 8 7 6 6 7 8 8 7 6 9 11 12 13 14 16 18 19 21 22 24 25 25 24 21 17 14 12 11 11 11 11 12 12 13 13 13 14 14 15 16 17 17 18 19 19 20 21 21 22 22 22 23 23 23 23 23 23 23 24
3 3 3 3 3 4 4 4 4 5 5 5 5 6 6 6 6 6 6 6 7 8 9 8 7 7 7 6 5 6 7 8 8 8 7 6 8 10 12 13 15 17 19 21 22 22 23 23 23 22 18 14 11 9 9 9 10 11 12 12 13 14 16 17 17 18 19 20 20 20 21 21 21 21 21 21 22 22 22 21 21 22 22 23 23 24
3 3 4 4 4 4 4 4 4 4 5 5 6 6 6 6 6 6 6 6 7 8 7 5 5 5 6 6 6 7 9 9 8 7 7 8 9 10 12 14 16 19 21 22 22 21 21 20 20 19 16 12 9 8 8 9 10 12 13 15 16 18 19 20 20 20 20 20 20 20 20 20 20 20 20 20 20 20 20 21 21 21 22 23 23 23
3 3 4 4 4 4 4 4 4 4 4 5 6 6 6 6 6 6 7 7 7 7 7 5 4 4 5 6 8 10 10 8 6 5 6 9 9 10 13 15 17 19 20 21 22 21 19 17 17 16 13 11 9 8 9 11 12 15 17 19 21 21 21 21 20 19 19 18 18 18 18 18 18 19 19 19 20 20 20 21 21 22 22 22 22 22
4 4 4 4 4 4 4 5 5 5 5 5 5 6 6 7 7 8 8 8 8 8 7 7 6 6 7 9 10 11 9 5 3 4 7 11 11 12 14 16 17 18 19 20 21 20 17 15 13 12 11 10 10 11 13 15 17 20 22 23 23 22 21 20 19 19 19 18 18 18 19 19 19 19 19 20 20 20 20 21 21 21 21 21 21 21
4 4 4 4 4 4 4 5 5 5 5 5 5 5 6 7 8 8 8 8 9 9 8 8 8 8 8 9 9 7 4 2 2 6 10 12 12 12 15 15 16 16 17 16 14 12 13 14 12 10 10 11 13 16 18 20 22 23 23 23 22 22 21 21 20 20 20 20 20 20 20 20 20 20 20 20 20 20 20 20 21 21 21 21 21 22
5 5 5 5 5 5 4 4 4 4 5 5 5 5 6 7 8 8 9 9 9 10 9 9 8 8 8 7 4 2 2 3 6 9 11 12 12 12 14 14 14 15 14 12 7 4 8 11 12 12 13 15 18 20 22 22 22 22 22 22 22 22 21 21 21 21 21 21 21 21 21 20 20 20 20 20 20 20 20 20 20 20 20 21 22 22
6 6 6 5 5 5 5 5 5 5 5 6 6 7 7 8 9 9 9 10 10 10 10 10 9 9 9 7 5 4 6 8 9 10 11 11 12 12 13 13 13 14 13 11 8 6 5 6 13 18 19 20 21 21 21 21 20 20 20 21 21 21 21 21 21 21 22 22 22 21 21 21 20 20 20 20 20 20 20 20 19 19 19 20 21 21
6 6 5 5 5 5 6 6 6 6 7 7 7 8 8 9 10 10 10 10 10 11 11 11 10 10 10 10 10 10 11 12 11 10 10 11 11 12 13 13 13 13 14 13 12 11 10 11 17 22 23 22 21 20 20 19 19 19 19 19 21 22 22 22 23 23 24 23 23 22 22 21 21 21 21 20 20 20 20 19 19 18 18 19 20 21
6 6 6 6 6 6 7 7 8 8 8 9 9 9 9 10 10 11 11 11 11 11 11 11 12 12 11 11 11 12 12 12 11 10 10 11 11 12 13 13 13 13 14 14 14 14 14 17 19 20 21 22 21 20 19 18 18 18 18 19 20 22 23 24 24 24 24 24 23 23 23 23 23 22 22 21 20 20 20 19 19 19 19 19 20 21
8 7 7 7 8 8 8 8 9 10 10 10 11 10 10 10 11 11 11 11 12 12 12 12 12 13 13 12 12 12 13 12 11 11 11 11 12 13 13 13 12 13 13 14 14 14 14 17 18 18 19 21 21 20 18 17 17 18 19 20 21 22 23 24 24 24 24 24 23 23 23 24 23 23 22 22 21 20 20 20 20 20 20 21 21 21
10 9 9 9 9 10 10 10 10 11 12 12 12 11 11 10 10 11 11 12 12 13 13 13 13 13 14 14 14 15 15 15 15 14 13 13 14 13 12 12 13 13 14 14 15 15 15 16 18 18 18 18 18 19 18 18 18 19 20 21 21 22 23 23 23 23 23 23 23 23 23 23 24 23 23 22 21 21 21 22 22 22 23 23 22 22
11 11 11 11 11 12 12 12 12 12 12 12 12 11 10 10 10 11 11 12 12 13 13 13 14 14 14 15 16 17 17 17 17 16 15 15 14 13 12 13 14 14 13 14 15 15 15 16 17 17 17 16 15 17 19 20 21 21 21 21 22 22 23 23 22 22 22 22 23 23 23 23 23 23 23 23 23 23 24 24 24 24 24 24 23 23
11 11 12 12 13 13 13 13 13 13 12 12 11 10 10 10 10 11 11 12 12 12 13 13 14 14 14 15 16 17 17 17 17 16 15 15 14 14 14 15 15 15 14 14 15 15 15 14 12 11 13 16 17 19 20 21 22 22 23 23 23 22 22 21 20 20 21 22 23 23 23 23 23 24 25 25 26 26 26 26 26 25 24 24 24 24
12 12 13 14 13 13 13 13 13 13 12 12 11 11 11 11 11 12 12 12 12 12 13 13 14 15 15 16 16 17 17 17 16 16 15 15 15 16 16 16 17 16 16 15 15 15 15 14 13 12 13 16 19 21 21 21 22 23 24 25 24 22 20 19 19 20 21 22 23 23 23 23 24 25 26 26 26 26 26 27 26 25 25 25 25 26
13 14 14 14 14 13 13 12 13 12 12 12 12 12 13 13 13 13 13 13 13 13 14 14 15 16 16 16 17 17 17 17 16 16 16 16 17 17 17 17 17 17 17 16 16 15 15 16 16 17 18 18 19 21 22 22 22 22 23 23 22 22 21 21 21 21 21 22 22 22 23 24 24 25 25 25 25 25 26 26 26 26 26 25 25 26
14 15 15 14 14 13 13 12 13 13 13 13 13 13 13 13 13 13 14 14 14 14 14 15 16 16 17 17 17 16 16 16 16 17 17 17 17 17 17 17 17 17 17 17 16 16 16 16 17 18 19 19 20 22 22 22 22 22 22 21 22 24 25 24 22 21 20 20 21 21 23 24 24 24 24 25 25 26 26 26 27 27 27 26 25 25
13 13 13 13 13 14 14 14 14 14 13 13 13 13 13 13 13 13 14 14 14 14 15 15 16 16 17 17 17 16 16 16 16 16 16 17 17 16 16 17 17 17 17 17 17 17 16 16 17 18 18 19 20 21 22 23 23 22 21 21 23 25 26 24 21 19 19 20 21 22 23 24 24 25 26 26 26 27 27 27 27 27 26 25 25 25
12 12 13 13 14 14 15 15 14 14 14 14 14 14 13 13 13 13 14 14 14 14 15 15 15 16 16 16 16 16 15 15 15 15 15 15 16 16 16 16 16 16 17 17 17 17 17 17 17 17 18 19 19 20 22 23 24 23 22 21 22 22 20 21 22 21 21 22 22 23 23 24 25 26 27 27 28 28 27 27 26 26 25 25 26 26
13 14 14 15 15 15 15 14 14 14 14 14 14 14 14 13 13 13 14 14 15 15 15 15 15 16 16 16 16 16 15 14 14 14 14 15 15 16 16 16 16 16 17 17 17 17 18 18 19 19 19 19 20 21 22 23 23 23 23 22 21 20 20 22 24 24 24 24 24 24 24 25 26 27 28 28 28 28 27 27 27 27 26 26 27 27
16 16 16 15 15 14 14 14 14 14 15 15 15 15 14 13 13 14 14 15 15 16 16 16 15 15 14 15 15 15 15 14 14 14 14 14 15 15 16 16 17 17 17 17 18 18 18 18 19 20 20 19 20 21 22 23 23 24 23 23 22 22 24 24 24 24 24 25 25 26 26 26 26 27 27 28 28 27 27 27 27 27 28 27 27 28
15 15 15 15 15 15 15 15 15 15 16 16 15 15 14 14 14 15 15 16 16 16 16 15 15 14 14 15 15 15 15 16 16 15 15 15 15 16 16 16 17 17 18 18 19 19 20 20 20 21 21 21 21 22 22 22 22 23 23 23 22 22 23 24 24 24 24 25 26 27 27 27 26 26 26 27 28 28 28 28 27 28 28 28 28 28
14 14 14 14 14 15 15 15 15 16 16 16 16 15 15 15 16 16 16 16 15 15 15 15 14 14 14 15 15 15 15 16 16 17 16 16 16 16 17 17 17 18 19 19 20 21 22 22 22 22 21 21 21 22 22 22 21 21 22 23 22 22 23 24 24 24 25 25 26 27 27 26 25 25 26 27 28 28 29 28 28 27 27 27 27 27
14 14 15 15 15 15 15 15 15 15 16 16 16 16 16 16 16 15 15 14 14 14 14 14 14 14 15 16 16 15 15 16 17 17 17 17 17 17 17 17 18 18 19 20 20 21 22 22 23 23 22 22 21 22 23 22 21 21 21 22 22 22 23 25 25 25 25 25 26 26 26 25 24 24 26 27 28 28 29 29 28 27 26 26 26 27
15 16 16 16 16 15 15 15 15 15 16 16 16 16 16 15 14 13 12 12 13 13 13 14 14 15 15 16 16 16 16 16 17 17 17 17 17 17 17 17 17 18 19 20 20 20 21 21 21 21 21 22 22 22 23 23 22 22 22 22 22 23 24 25 26 26 25 25 25 25 25 24 24 24 25 25 26 28 29 29 28 27 26 26 26 27
16 16 16 16 16 16 16 16 15 15 15 15 15 15 14 13 11 10 11 11 13 13 14 14 15 15 16 16 16 16 16 16 16 17 17 16 16 16 16 16 17 18 19 19 19 19 18 18 18 18 18 19 21 22 24 24 23 23 23 23 23 23 23 25 25 25 25 25 25 25 25 25 25 24 23 23 24 26 28 28 28 28 27 26 26 27
16 16 16 16 17 17 17 16 16 16 16 16 15 14 12 11 11 11 12 12 13 14 14 14 15 15 15 16 16 16 16 16 16 16 16 16 16 16 16 16 16 17 17 17 17 16 15 14 14 15 16 16 16 18 21 22 23 22 22 22 22 22 22 23 24 25 25 25 25 26 26 25 24 22 21 21 22 24 25 27 28 28 27 26 26 27
Wind_Direction
241 247 252 257 259 263 269 273 278 282 283 284 285 286 287 288 289 288 288 287 286 283 279 274 270 269 270 270 271 271 272 274 276 277 278 278 277 277 278 278 279 279 280 279 279 278 277 277 277 277 276 275 274 273 273 272 272 271 270 268 267 266 266 267 269 270 271 272 273 274 274 273 272 272 271 271 271 271 271 272 272 272 271 271 271 271
248 251 255 262 264 266 273 281 289 294 299 302 304 306 305 303 300 298 297 295 294 295 295 293 286 279 273 271 270 271 273 276 279 281 283 284 285 284 284 284 285 286 287 288 289 289 288 288 286 284 282 280 278 276 275 274 274 275 275 274 273 272 272 272 272 272 272 271 271 271 271 270 269 269 269 270 270 271 271 272 272 271 271 272 272 271
253 253 257 264 270 274 280 290 296 301 305 311 318 323 327 326 320 312 306 303 301 300 300 301 298 293 286 278 273 269 268 269 271 274 277 279 280 281 281 282 282 284 285 286 288 289 289 288 286 284 281 280 279 278 279 279 280 281 281 281 280 279 277 276 275 273 272 271 269 269 269 269 269 269 271 271 272 272 272 272 272 271 271 272 272 272
250 247 253 263 272 277 283 291 297 303 309 315 321 327 332 336 335 326 316 310 305 302 298 296 295 293 290 284 278 272 268 265 263 264 267 269 271 272 274 274 275 276 277 279 280 282 284 284 284 285 286 286 286 287 287 287 287 286 285 283 281 280 279 278 277 275 274 273 273 272 272 272 273 273 273 274 273 273 273 272 272 272 272 272 272 272
236 239 245 255 263 272 283 290 297 303 309 315 321 328 333 337 339 334 324 316 311 307 304 302 300 299 297 291 285 279 273 268 265 264 264 265 267 268 270 271 272 273 275 277 281 285 289 292 296 297 297 297 296 295 293 292 289 287 285 284 283 282 281 280 280 279 279 278 278 278 278 278 277 277 277 276 275 274 274 273 273 273 273 272 272 272
215 221 230 239 250 263 280 291 299 306 311 316 324 330 334 338 340 341 340 337 332 328 325 324 323 323 318 310 301 292 285 280 276 272 269 267 266 266 268 272 277 282 285 290 293 295 297 298 299 298 295 293 292 292 290 289 288 287 286 285 284 284 283 283 282 281 281 281 280 280 280 279 279 278 278 277 276 276 275 274 273 273 273 272 272 272
187 189 197 219 242 270 294 305 316 322 322 324 329 334 337 341 346 352 357 360 358 356 355 355 356 356 353 347 339 329 322 313 307 298 288 280 273 268 266 267 272 278 281 282 283 285 287 288 288 286 285 285 286 287 287 287 287 286 286 285 284 283 283 282 282 282 282 281 280 280 279 279 278 277 277 276 276 275 275 274 274 273 273 273 273 273
165 158 145 151 151 338 340 340 347 350 346 341 339 340 342 346 353 2 7 8 7 7 10 14 17 16 13 12 11 11 8 5 0 349 332 318 306 297 287 280 275 273 274 275 277 279 282 285 285 286 286 287 288 289 288 287 286 285 284 282 281 281 282 281 281 282 281 281 280 280 279 279 278 278 277 277 276 275 275 274 274 274 274 274 274 274
154 144 123 109 87 44 22 5 4 6 5 356 346 340 342 346 353 0 6 11 10 7 5 11 18 21 16 11 7 5 1 357 353 345 336 327 319 313 307 300 294 290 288 288 289 290 291 291 292 292 293 293 293 293 292 290 288 286 284 283 282 281 282 281 281 282 281 281 280 279 279 280 279 279 278 278 277 276 275 275 275 275 275 275 275 275
148 146 140 102 59 32 28 10 5 5 6 359 347 337 335 340 344 351 358 4 5 1 356 356 357 359 357 351 346 341 337 333 330 327 323 318 315 312 309 306 303 301 301 300 299 298 297 297 297 297 298 298 297 296 294 292 290 287 286 284 283 282 282 282 282 282 282 281 280 280 280 281 281 280 280 279 278 278 277 276 276 276 276 276 276 276
166 165 169 154 64 33 25 10 359 356 353 348 340 334 331 333 338 346 354 357 355 352 350 348 346 341 335 331 327 323 321 319 316 313 311 309 308 306 304 303 302 301 300 300 299 298 297 297 298 298 299 299 298 296 294 292 289 287 286 284 284 283 283 283 283 282 282 281 281 281 282 283 283 282 282 281 280 280 279 279 278 278 278 278 278 278
171 173 182 189 195 91 28 3 352 343 335 324 317 318 325 332 338 343 349 348 344 342 342 341 339 334 326 321 319 317 314 313 310 307 304 302 300 298 296 294 293 293 292 292 292 293 294 295 296 297 297 297 296 295 293 290 288 287 286 286 286 286 286 285 285 284 284 284 283 284 284 284 284 283 283 283 282 281 281 281 281 280 280 280 280 279
177 179 184 197 212 227 238 253 272 286 293 291 285 282 306 332 339 342 344 337 333 332 331 331 330 325 318 314 312 311 309 307 304 302 300 298 297 295 293 290 287 287 287 287 288 289 292 293 295 295 297 297 295 294 292 290 288 287 287 288 289 290 290 290 289 289 289 288 287 286 286 285 285 284 285 285 285 284 283 282 282 281 281 280 280 280
182 186 192 204 214 224 233 238 243 246 241 234 217 204 260 317 329 335 334 327 323 322 320 322 323 319 310 304 301 300 299 298 298 297 295 295 296 296 294 292 290 290 291 291 291 293 295 297 298 298 299 298 296 294 293 291 290 290 290 291 293 294 295 295 295 294 293 291 290 290 289 288 288 287 287 286 285 285 284 283 282 282 281 281 280 280
189 192 196 202 211 220 225 228 225 216 201 188 179 185 248 282 300 311 317 317 316 315 316 321 320 314 302 296 293 291 290 293 296 297 296 295 296 299 299 297 296 296 296 296 297 299 301 302 304 305 304 301 299 298 297 296 295 295 295 296 298 298 298 298 298 297 296 294 294 293 292 290 289 288 287 287 286 285 285 284 283 282 282 281 281 280
191 195 200 203 207 210 213 209 202 195 188 184 182 189 206 233 276 298 309 315 315 316 321 328 328 315 292 287 287 288 290 298 303 306 304 299 299 301 302 302 302 302 302 302 304 306 309 310 311 311 310 307 305 303 303 301 301 300 300 300 300 300 299 298 298 297 296 295 294 292 291 290 289 289 288 288 287 286 285 285 284 283 282 282 281 281
176 183 187 187 189 192 192 190 188 186 186 185 185 191 209 240 275 295 306 311 314 318 324 331 336 322 289 266 279 296 305 312 314 313 310 306 305 306 307 307 308 308 308 309 311 314 318 318 318 316 314 312 310 308 307 306 304 303 302 301 300 299 298 298 297 296 295 294 292 291 291 290 290 289 289 288 287 287 286 285 285 284 283 282 281 281
169 172 175 174 176 180 181 182 182 185 189 187 189 200 223 250 275 294 303 306 310 315 319 320 303 265 278 261 283 304 314 320 321 319 315 310 309 310 312 312 312 312 313 314 317 320 322 321 320 318 316 314 313 311 309 307 306 305 304 303 301 300 299 298 297 296 294 293 293 292 291 290 290 289 289 288 288 287 287 286 285 284 283 283 282 282
179 182 183 183 183 183 183 184 185 187 188 191 196 209 229 260 284 295 297 299 300 303 308 306 292 277 271 275 291 305 314 320 323 322 317 312 311 313 316 316 316 315 316 317 319 322 323 322 320 318 316 315 313 311 310 308 308 307 305 304 302 300 298 297 297 296 295 294 293 292 291 291 290 290 289 289 289 288 287 287 286 285 284 284 283 283
192 194 194 196 194 191 190 191 191 192 194 206 226 244 250 276 288 290 288 293 297 299 301 301 295 288 287 288 296 307 316 321 325 325 317 311 311 315 319 320 320 318 317 317 320 322 323 321 319 317 315 314 312 311 310 309 308 306 304 302 301 299 298 297 296 296 295 295 294 293 292 291 291 290 290 290 290 289 289 288 287 287 286 286 285 284
202 199 200 205 208 204 198 200 201 204 215 236 257 271 278 289 290 288 290 296 299 300 302 303 299 298 300 302 307 313 320 325 329 327 318 311 310 315 322 325 323 320 317 317 319 322 321 319 317 315 313 312 311 310 309 308 306 304 302 301 300 299 298 298 297 296 296 295 295 294 293 293 293 292 292 291 291 291 290 289 289 289 288 287 286 286
209 201 202 205 210 215 215 216 217 224 240 258 273 282 288 296 296 293 296 301 303 304 306 306 304 303 303 306 311 316 322 328 331 329 321 308 305 312 322 325 323 319 315 316 319 321 319 316 314 312 311 311 310 309 308 307 305 303 302 300 300 299 299 299 298 297 297 297 296 296 295 295 294 294 293 293 292 292 292 291 290 289 289 288 288 287
221 215 214 212 214 221 230 233 236 245 259 270 279 287 296 301 301 300 302 304 305 305 305 304 303 303 304 307 313 319 325 331 333 329 319 298 298 309 319 322 321 318 314 315 318 320 317 314 312 312 312 312 311 311 309 308 306 304 302 300 300 300 300 300 299 299 299 299 299 298 297 297 296 295 294 294 294 294 293 292 291 291 290 289 288 287
240 240 241 242 240 239 243 246 250 258 269 277 284 290 296 301 301 301 302 304 306 306 306 306 307 309 310 315 320 326 329 332 332 329 318 293 293 304 314 320 322 319 315 316 318 318 316 314 313 314 315 316 316 315 313 310 307 304 301 300 300 300 301 302 302 302 302 303 301 300 299 298 297 296 295 295 295 294 294 293 293 292 291 290 289 288
271 269 269 269 269 266 264 265 267 273 279 283 287 292 297 300 301 302 303 305 309 311 312 313 316 318 319 323 326 327 329 329 329 325 312 294 293 301 312 321 325 322 318 317 318 318 316 314 315 317 320 322 322 320 316 311 306 301 299 298 299 299 300 301 302 303 302 302 300 300 299 298 298 297 296 295 295 295 294 294 293 293 292 291 290 288
289 287 284 285 283 282 281 280 281 284 287 288 290 293 296 299 301 301 302 305 310 314 317 320 322 322 322 323 322 322 326 327 326 320 309 299 298 305 314 325 329 326 321 318 318 319 317 314 315 319 325 328 328 324 315 306 300 296 294 295 296 296 297 299 301 301 301 300 300 298 297 297 296 296 296 296 295 295 294 294 294 294 293 293 291 289
291 291 291 288 288 286 283 284 285 287 289 292 293 295 296 297 297 296 295 300 308 315 317 318 317 316 317 318 317 320 322 322 318 314 309 307 307 310 318 328 331 329 324 321 319 318 316 313 315 321 327 330 329 320 306 298 294 293 294 295 296 297 299 301 302 301 300 300 299 298 297 297 297 298 298 297 297 296 295 295 296 296 296 295 293 291
283 286 285 282 277 271 267 266 267 269 271 278 285 290 291 291 290 290 292 301 309 311 308 304 304 309 311 314 315 316 319 315 313 313 314 322 320 317 322 330 333 331 329 323 320 318 316 314 316 322 327 327 320 308 297 293 292 295 297 300 302 303 305 307 308 307 307 306 305 304 303 303 302 302 301 301 300 300 299 298 298 298 298 297 295 292
266 272 273 269 261 255 252 252 253 253 252 255 263 275 281 283 286 289 295 302 305 303 298 297 300 305 309 312 314 315 314 308 317 329 328 332 327 321 325 330 333 333 333 328 324 321 318 317 319 322 322 317 309 301 297 296 298 301 304 307 309 312 314 316 317 317 316 314 312 310 308 306 304 303 302 301 301 300 299 299 300 300 299 297 294 291
266 276 279 274 267 262 259 259 259 259 257 257 258 263 270 277 283 289 294 298 298 295 293 297 302 307 313 317 319 318 313 328 350 341 335 332 326 323 326 328 330 332 335 334 329 323 318 317 317 318 315 309 305 302 302 304 306 308 311 313 314 316 317 318 318 316 315 313 311 309 307 305 303 302 301 301 300 300 299 300 300 300 299 297 295 293
277 290 293 290 283 276 272 272 273 274 275 275 273 273 275 281 287 292 294 296 295 295 294 298 303 307 311 317 322 319 301 315 328 333 332 327 320 318 322 324 325 328 333 336 335 321 316 315 314 312 310 308 306 306 307 309 310 312 313 314 314 314 314 315 314 312 311 310 308 307 306 304 303 302 301 301 300 300 300 300 300 299 298 297 296 294
287 297 299 296 290 282 277 277 279 281 285 287 289 289 289 291 293 294 295 295 296 296 295 297 298 300 299 294 285 276 283 296 307 317 320 316 311 311 315 317 318 319 323 325 318 306 305 306 307 308 309 308 308 308 309 310 310 311 311 311 311 311 311 312 311 310 309 309 308 307 306 306 305 304 303 303 302 301 301 300 300 299 298 297 296 294
290 298 300 297 292 287 285 285 286 287 288 289 290 290 293 294 293 292 292 291 292 292 292 290 289 289 287 282 277 277 281 288 295 301 306 305 303 305 309 311 312 314 316 315 308 298 290 292 300 305 307 307 307 307 307 308 308 309 309 309 309 309 310 311 310 310 310 309 309 308 308 308 308 307 307 305 304 302 302 300 299 298 296 295 295 294
288 292 295 294 292 291 291 291 291 290 289 288 287 288 291 292 291 289 288 286 285 284 285 283 282 281 282 281 280 280 282 286 291 296 299 297 297 299 304 307 309 312 314 313 309 303 295 294 297 302 305 305 305 305 306 307 308 308 308 308 308 308 309 310 310 310 310 309 309 309 309 310 310 309 307 305 304 302 301 300 298 296 295 293 293 293
282 284 287 291 295 296 296 295 293 292 290 289 289 291 293 294 293 290 287 285 284 283 283 283 282 280 279 280 281 282 284 288 292 296 295 292 292 295 301 304 309 313 315 312 310 307 302 299 299 300 303 304 305 305 305 307 308 309 308 308 307 308 308 309 310 309 309 308 307 307 308 310 309 308 306 304 303 301 300 298 297 295 293 292 291 290
275 277 282 289 296 300 300 298 296 295 294 296 298 300 301 299 296 292 288 287 285 284 284 284 284 283 281 279 279 280 283 288 292 294 291 288 289 294 300 303 308 312 313 310 308 306 304 301 300 300 301 302 304 305 307 309 310 310 309 308 308 307 307 308 308 308 307 307 306 306 307 307 307 306 305 304 302 300 298 296 295 294 293 291 289 287
269 274 282 289 294 297 299 299 299 299 301 305 309 311 309 304 299 295 291 289 288 287 287 286 286 286 286 285 284 284 287 291 293 292 289 287 290 296 301 303 306 310 310 307 305 304 303 302 302 302 300 298 300 303 307 310 311 310 308 308 308 307 306 306 307 307 306 305 305 304 305 305 305 304 304 303 302 300 299 298 297 297 296 294 292 288
268 276 284 288 291 294 296 299 302 305 309 314 316 314 310 306 302 299 296 294 292 290 288 288 288 289 289 289 288 288 290 292 291 290 288 288 292 298 302 303 304 304 302 299 298 298 299 300 301 302 302 299 298 300 304 308 310 309 308 308 307 306 305 306 307 307 305 304 303 303 303 303 303 303 303 303 303 302 302 301 300 300 299 297 294 291
269 275 281 286 290 295 299 303 306 310 312 314 313 310 308 306 304 302 301 299 296 295 293 292 292 292 292 291 290 290 290 290 289 288 288 289 292 296 299 300 300 299 298 294 292 291 292 292 293 295 299 300 301 301 303 305 306 307 308 309 308 306 305 306 306 305 303 302 302 302 302 303 303 304 303 304 303 303 302 302 301 301 300 299 297 294
271 276 281 286 291 296 300 302 305 308 309 308 307 306 305 306 306 305 304 302 300 299 298 296 295 294 293 291 290 289 289 288 288 287 287 288 290 292 294 295 295 295 296 293 290 288 285 286 287 289 292 295 298 300 301 302 303 305 308 309 308 306 306 306 305 303 302 301 301 302 303 304 304 304 303 303 302 301 301 300 299 299 298 297 296 295
273 276 280 285 290 293 294 297 301 304 305 304 303 302 302 303 303 302 301 301 299 298 297 296 296 295 293 291 290 288 288 287 285 285 285 285 287 289 291 292 292 293 293 292 290 288 284 284 285 287 289 291 294 296 297 298 300 302 304 304 302 302 304 304 303 302 301 302 302 303 304 304 304 303 302 302 301 300 299 298 297 297 297 295 292 291
270 273 278 284 288 292 295 299 301 302 302 301 300 299 298 298 298 298 298 298 297 297 297 297 296 295 293 292 291 289 288 286 285 284 284 285 286 287 289 291 293 294 293 291 289 287 285 284 285 287 288 291 293 295 295 295 297 299 299 299 300 302 304 303 302 302 303 303 304 304 303 303 303 303 302 302 300 300 299 297 296 295 294 292 289 287
275 278 283 287 290 293 296 298 299 299 299 298 297 297 297 297 297 297 297 297 297 298 298 297 296 295 293 291 291 291 290 288 287 287 288 288 289 290 291 292 294 295 295 292 290 289 288 287 285 284 286 289 290 291 292 294 296 296 296 296 299 302 303 302 302 304 304 303 303 303 303 303 303 303 302 301 300 299 298 297 294 292 290 289 287 285
281 284 287 289 291 293 294 294 295 296 296 295 294 295 297 298 299 298 298 298 299 299 299 299 298 296 293 291 292 294 294 293 292 291 291 293 294 295 295 295 295 295 294 290 288 288 291 290 288 286 287 288 288 288 288 291 293 294 294 294 294 293 291 294 299 302 303 302 301 301 302 303 303 303 302 301 300 299 297 296 294 292 289 288 286 284
281 284 286 288 290 291 291 292 293 294 293 292 291 293 295 297 298 298 298 298 298 298 298 298 298 296 293 292 293 296 297 296 295 295 294 295 295 295 296 295 295 295 293 290 287 286 287 288 289 290 289 287 285 283 284 286 289 291 291 292 291 289 287 289 293 297 298 299 300 300 301 303 304 304 302 301 299 298 296 295 293 292 290 288 286 283
280 282 284 286 287 288 289 291 293 293 292 290 290 291 293 295 295 295 295 295 295 295 295 296 295 291 289 291 294 296 297 297 297 297 297 297 297 296 296 295 295 295 294 291 289 286 284 283 285 288 290 288 285 281 280 281 284 287 289 291 291 291 290 290 291 292 294 296 297 299 301 303 303 302 300 299 299 297 295 294 292 291 289 288 285 283
280 281 282 284 286 287 289 291 292 291 290 289 289 290 291 292 293 292 292 292 292 293 293 294 291 287 285 288 291 294 295 296 297 298 298 299 299 299 298 297 297 296 295 294 292 290 287 284 283 283 284 285 284 282 281 280 280 282 285 288 290 291 291 291 291 292 293 294 295 298 301 303 302 301 299 299 298 297 295 294 292 290 288 286 284 282
279 280 281 283 284 285 286 287 287 287 286 286 287 288 290 290 289 289 289 291 292 293 294 293 291 288 286 287 288 289 290 292 295 297 298 300 300 300 299 299 298 298 297 296 295 292 289 286 282 279 276 275 276 279 281 281 280 279 281 284 287 288 288 290 291 293 294 294 294 296 298 299 299 299 300 299 298 296 295 294 292 290 288 286 284 282
274 276 276 277 278 279 280 281 281 280 281 282 284 286 287 288 288 288 289 293 296 296 294 293 291 289 288 288 288 289 289 290 292 294 296 298 300 301 301 300 301 302 301 300 298 296 293 289 283 277 273 268 268 271 276 278 279 279 280 281 283 284 286 288 291 293 294 294 295 296 297 296 295 296 297 296 295 293 293 293 292 291 289 286 284 282
269 270 271 271 272 273 275 276 277 277 278 280 282 283 285 287 290 293 298 301 300 298 295 292 290 289 288 288 288 289 289 290 291 293 295 297 300 301 301 303 305 306 306 305 304 302 300 296 290 284 276 268 264 265 270 274 277 279 280 280 281 282 284 287 290 292 294 295 296 297 297 296 295 294 293 291 289 290 291 291 291 290 289 288 286 284
267 269 270 271 272 273 275 276 276 277 279 280 281 281 283 288 294 299 302 302 301 298 295 292 290 288 287 288 289 289 289 290 291 293 294 297 299 301 302 303 306 308 309 308 308 307 306 303 300 295 288 277 266 263 266 271 276 280 281 281 282 283 285 287 290 293 295 296 297 297 298 297 295 293 289 288 287 288 290 290 290 290 290 290 289 287